Time,TemperatureF,DewpointF,PressureIn,WindDirection,WindDirectionDegrees,WindSpeedMPH,WindSpeedGustMPH,Humidity,HourlyPrecipIn,Conditions,Clouds,dailyrainin,SoftwareType,DateUTC
2013-02-16 00:03:00,43.3,35.0,29.86,South,178,0.0,-999.0,73,-99.99,,,0.00,weatherlink.com 1.10,2013-02-16 05:03:00,
2013-02-16 00:19:00,44.3,34.0,29.86,SE,143,0.0,-999.0,68,-99.99,,,0.00,weatherlink.com 1.10,2013-02-16 05:19:00,
2013-02-16 00:34:00,44.1,34.0,29.86,WSW,241,0.0,-999.0,68,-99.99,,,0.00,weatherlink.com 1.10,2013-02-16 05:34:00,
2013-02-16 00:49:00,43.9,34.0,29.86,North,0,0.0,-999.0,68,-99.99,,,0.00,weatherlink.com 1.10,2013-02-16 05:49:00,
2013-02-16 01:04:00,43.5,34.0,29.86,NNW,347,0.0,-999.0,70,-99.99,,,0.00,weatherlink.com 1.10,2013-02-16 06:04:00,
2013-02-16 01:19:00,43.1,34.0,29.86,NW,325,0.0,-999.0,71,-99.99,,,0.00,weatherlink.com 1.10,2013-02-16 06:19:00,
2013-02-16 01:34:00,42.9,34.0,29.85,NW,323,0.0,-999.0,70,-99.99,,,0.00,weatherlink.com 1.10,2013-02-16 06:34:00,
2013-02-16 01:49:00,43.2,34.0,29.85,WNW,292,0.0,-999.0,70,-99.99,,,0.00,weatherlink.com 1.10,2013-02-16 06:49:00,
2013-02-16 02:04:00,43.1,34.0,29.84,SSW,213,0.0,-999.0,70,-99.99,,,0.00,weatherlink.com 1.10,2013-02-16 07:04:00,
2013-02-16 02:19:00,42.9,34.0,29.84,SW,215,0.0,-999.0,70,-99.99,,,0.00,weatherlink.com 1.10,2013-02-16 07:19:00,
2013-02-16 02:34:00,42.8,33.0,29.84,SW,215,0.0,-999.0,69,-99.99,,,0.00,weatherlink.com 1.10,2013-02-16 07:34:00,
2013-02-16 02:49:00,42.8,33.0,29.85,SW,215,0.0,-999.0,69,-99.99,,,0.00,weatherlink.com 1.10,2013-02-16 07:49:00,
2013-02-16 03:04:00,42.5,34.0,29.84,SW,215,0.0,-999.0,71,-99.99,,,0.00,weatherlink.com 1.10,2013-02-16 08:04:00,
2013-02-16 03:19:00,42.3,33.0,29.84,SW,215,0.0,-999.0,70,-99.99,,,0.00,weatherlink.com 1.10,2013-02-16 08:19:00,
2013-02-16 03:34:00,42.2,33.0,29.84,SW,215,0.0,-999.0,71,-99.99,,,0.00,weatherlink.com 1.10,2013-02-16 08:34:00,
2013-02-16 03:49:00,42.1,33.0,29.84,SW,215,0.0,-999.0,71,-99.99,,,0.00,weatherlink.com 1.10,2013-02-16 08:49:00,
2013-02-16 04:04:00,41.8,34.0,29.83,SW,215,0.0,-999.0,73,-99.99,,,0.00,weatherlink.com 1.10,2013-02-16 09:04:00,
2013-02-16 04:19:00,41.6,33.0,29.83,SW,215,0.0,-999.0,72,-99.99,,,0.00,weatherlink.com 1.10,2013-02-16 09:19:00,
2013-02-16 04:34:00,41.5,33.0,29.83,SW,215,0.0,-999.0,72,-99.99,,,0.00,weatherlink.com 1.10,2013-02-16 09:34:00,
2013-02-16 04:49:00,41.3,33.0,29.83,SW,215,0.0,-999.0,73,-99.99,,,0.00,weatherlink.com 1.10,2013-02-16 09:49:00,
2013-02-16 05:04:00,41.5,33.0,29.83,SW,217,0.0,-999.0,72,-99.99,,,0.00,weatherlink.com 1.10,2013-02-16 10:04:00,
2013-02-16 05:19:00,41.5,33.0,29.84,NW,316,0.0,-999.0,73,-99.99,,,0.00,weatherlink.com 1.10,2013-02-16 10:19:00,
2013-02-16 05:34:00,41.2,33.0,29.82,NW,316,0.0,-999.0,73,-99.99,,,0.00,weatherlink.com 1.10,2013-02-16 10:34:00,
2013-02-16 05:49:00,41.1,33.0,29.82,NW,320,0.0,-999.0,74,-99.99,,,0.00,weatherlink.com 1.10,2013-02-16 10:49:00,
2013-02-16 06:04:00,41.1,34.0,29.82,NW,320,0.0,-999.0,75,-99.99,,,0.00,weatherlink.com 1.10,2013-02-16 11:04:00,
2013-02-16 06:19:00,40.9,34.0,29.82,North,359,0.0,-999.0,75,-99.99,,,0.00,weatherlink.com 1.10,2013-02-16 11:19:00,
2013-02-16 06:34:00,40.9,34.0,29.82,North,359,0.0,-999.0,77,-99.99,,,0.00,weatherlink.com 1.10,2013-02-16 11:34:00,
2013-02-16 06:49:00,40.8,34.0,29.82,South,169,0.0,-999.0,76,-99.99,,,0.00,weatherlink.com 1.10,2013-02-16 11:49:00,
2013-02-16 07:04:00,40.8,35.0,29.81,North,359,0.0,-999.0,79,-99.99,,,0.00,weatherlink.com 1.10,2013-02-16 12:04:00,
2013-02-16 07:19:00,40.5,35.0,29.82,WNW,291,3.0,-999.0,82,-99.99,,,0.00,weatherlink.com 1.10,2013-02-16 12:19:00,
2013-02-16 07:34:00,39.6,35.0,29.83,West,274,0.0,-999.0,84,-99.99,,,0.00,weatherlink.com 1.10,2013-02-16 12:34:00,
2013-02-16 07:49:00,39.2,35.0,29.83,West,267,0.0,-999.0,85,-99.99,,,0.00,weatherlink.com 1.10,2013-02-16 12:49:00,
2013-02-16 08:04:00,38.5,35.0,29.83,ESE,107,0.0,-999.0,88,-99.99,,,0.01,weatherlink.com 1.10,2013-02-16 13:04:00,
2013-02-16 08:19:00,38.2,36.0,29.84,SE,126,0.0,-999.0,90,-99.99,,,0.02,weatherlink.com 1.10,2013-02-16 13:19:00,
2013-02-16 08:35:00,37.5,35.0,29.84,South,181,0.0,-999.0,91,-99.99,,,0.03,weatherlink.com 1.10,2013-02-16 13:35:00,
2013-02-16 08:50:00,37.0,35.0,29.85,South,179,0.0,-999.0,92,-99.99,,,0.04,weatherlink.com 1.10,2013-02-16 13:50:00,
2013-02-16 09:04:00,36.6,35.0,29.84,North,1,0.0,-999.0,92,-99.99,,,0.06,weatherlink.com 1.10,2013-02-16 14:04:00,
2013-02-16 09:19:00,36.3,35.0,29.84,NNE,32,0.0,-999.0,93,-99.99,,,0.08,weatherlink.com 1.10,2013-02-16 14:19:00,
2013-02-16 09:34:00,35.9,34.0,29.84,WNW,282,0.0,-999.0,93,-99.99,,,0.10,weatherlink.com 1.10,2013-02-16 14:34:00,
2013-02-16 09:49:00,34.9,33.0,29.84,West,275,0.0,-999.0,93,-99.99,,,0.12,weatherlink.com 1.10,2013-02-16 14:49:00,
2013-02-16 10:04:00,34.0,32.0,29.85,West,275,0.0,-999.0,93,-99.99,,,0.14,weatherlink.com 1.10,2013-02-16 15:04:00,
2013-02-16 10:20:00,33.2,32.0,29.83,West,275,0.0,-999.0,94,-99.99,,,0.14,weatherlink.com 1.10,2013-02-16 15:20:00,
2013-02-16 10:35:00,32.9,31.0,29.82,West,275,0.0,-999.0,94,-99.99,,,0.14,weatherlink.com 1.10,2013-02-16 15:35:00,
2013-02-16 10:49:00,32.8,31.0,29.83,West,275,0.0,-999.0,94,-99.99,,,0.14,weatherlink.com 1.10,2013-02-16 15:49:00,
2013-02-16 11:04:00,32.7,31.0,29.83,West,275,0.0,-999.0,94,-99.99,,,0.15,weatherlink.com 1.10,2013-02-16 16:04:00,
2013-02-16 11:19:00,32.7,32.0,29.83,West,275,0.0,-999.0,95,-99.99,,,0.15,weatherlink.com 1.10,2013-02-16 16:19:00,
2013-02-16 11:34:00,32.7,32.0,29.83,West,275,0.0,-999.0,95,-99.99,,,0.15,weatherlink.com 1.10,2013-02-16 16:34:00,
2013-02-16 11:49:00,32.8,32.0,29.82,West,275,0.0,-999.0,95,-99.99,,,0.16,weatherlink.com 1.10,2013-02-16 16:49:00,
2013-02-16 12:05:00,33.2,32.0,29.81,West,275,0.0,-999.0,95,-99.99,,,0.17,weatherlink.com 1.10,2013-02-16 17:05:00,
2013-02-16 12:20:00,33.2,32.0,29.80,West,275,0.0,-999.0,95,-99.99,,,0.17,weatherlink.com 1.10,2013-02-16 17:20:00,
2013-02-16 12:35:00,33.5,32.0,29.79,West,275,0.0,-999.0,95,-99.99,,,0.19,weatherlink.com 1.10,2013-02-16 17:35:00,
2013-02-16 12:50:00,33.5,32.0,29.78,West,277,0.0,-999.0,95,-99.99,,,0.20,weatherlink.com 1.10,2013-02-16 17:50:00,
2013-02-16 13:05:00,33.7,33.0,29.77,West,277,0.0,-999.0,96,-99.99,,,0.21,weatherlink.com 1.10,2013-02-16 18:05:00,
2013-02-16 13:20:00,33.8,33.0,29.77,WSW,251,0.0,-999.0,96,-99.99,,,0.22,weatherlink.com 1.10,2013-02-16 18:20:00,
2013-02-16 13:35:00,34.0,33.0,29.76,NE,37,0.0,-999.0,96,-99.99,,,0.23,weatherlink.com 1.10,2013-02-16 18:35:00,
2013-02-16 13:50:00,34.1,33.0,29.76,NE,35,0.0,-999.0,96,-99.99,,,0.24,weatherlink.com 1.10,2013-02-16 18:50:00,
2013-02-16 14:05:00,34.1,33.0,29.75,WNW,289,0.0,-999.0,96,-99.99,,,0.25,weatherlink.com 1.10,2013-02-16 19:05:00,
2013-02-16 14:20:00,34.0,33.0,29.74,WNW,299,0.0,-999.0,96,-99.99,,,0.26,weatherlink.com 1.10,2013-02-16 19:20:00,
2013-02-16 14:35:00,34.0,33.0,29.75,WNW,291,0.0,-999.0,96,-99.99,,,0.27,weatherlink.com 1.10,2013-02-16 19:35:00,
2013-02-16 14:50:00,33.8,33.0,29.75,NNW,344,0.0,-999.0,96,-99.99,,,0.28,weatherlink.com 1.10,2013-02-16 19:50:00,
2013-02-16 15:05:00,33.8,33.0,29.74,West,263,4.0,-999.0,96,-99.99,,,0.29,weatherlink.com 1.10,2013-02-16 20:05:00,
2013-02-16 15:20:00,33.7,33.0,29.74,NW,318,0.0,-999.0,96,-99.99,,,0.30,weatherlink.com 1.10,2013-02-16 20:20:00,
2013-02-16 15:35:00,33.4,32.0,29.73,WSW,243,0.0,-999.0,96,-99.99,,,0.31,weatherlink.com 1.10,2013-02-16 20:35:00,
2013-02-16 15:50:00,33.4,32.0,29.73,WNW,292,0.0,-999.0,96,-99.99,,,0.31,weatherlink.com 1.10,2013-02-16 20:50:00,
2013-02-16 16:05:00,33.2,32.0,29.73,NW,318,0.0,-999.0,96,-99.99,,,0.32,weatherlink.com 1.10,2013-02-16 21:05:00,
2013-02-16 16:20:00,32.9,32.0,29.74,SW,223,0.0,-999.0,96,-99.99,,,0.33,weatherlink.com 1.10,2013-02-16 21:20:00,
2013-02-16 16:35:00,33.1,32.0,29.74,North,0,0.0,-999.0,96,-99.99,,,0.33,weatherlink.com 1.10,2013-02-16 21:35:00,
2013-02-16 16:50:00,33.2,32.0,29.73,North,0,0.0,-999.0,96,-99.99,,,0.33,weatherlink.com 1.10,2013-02-16 21:50:00,
2013-02-16 17:05:00,33.1,32.0,29.73,NW,308,0.0,-999.0,96,-99.99,,,0.34,weatherlink.com 1.10,2013-02-16 22:05:00,
2013-02-16 17:20:00,33.1,32.0,29.74,SSE,161,0.0,-999.0,96,-99.99,,,0.34,weatherlink.com 1.10,2013-02-16 22:20:00,
2013-02-16 17:35:00,32.9,32.0,29.73,NE,49,0.0,-999.0,96,-99.99,,,0.34,weatherlink.com 1.10,2013-02-16 22:35:00,
2013-02-16 17:50:00,32.9,32.0,29.73,NNE,20,0.0,-999.0,96,-99.99,,,0.35,weatherlink.com 1.10,2013-02-16 22:50:00,
2013-02-16 18:05:00,32.7,32.0,29.73,South,172,0.0,-999.0,96,-99.99,,,0.35,weatherlink.com 1.10,2013-02-16 23:05:00,
2013-02-16 18:20:00,32.5,32.0,29.73,South,172,0.0,-999.0,96,-99.99,,,0.35,weatherlink.com 1.10,2013-02-16 23:20:00,
2013-02-16 18:35:00,32.5,32.0,29.74,NE,47,0.0,-999.0,96,-99.99,,,0.35,weatherlink.com 1.10,2013-02-16 23:35:00,
2013-02-16 18:50:00,32.5,32.0,29.75,WSW,253,0.0,-999.0,96,-99.99,,,0.35,weatherlink.com 1.10,2013-02-16 23:50:00,
2013-02-16 19:05:00,32.5,32.0,29.75,WSW,243,0.0,-999.0,96,-99.99,,,0.35,weatherlink.com 1.10,2013-02-17 00:05:00,
2013-02-16 19:20:00,32.4,31.0,29.75,WNW,287,0.0,-999.0,96,-99.99,,,0.35,weatherlink.com 1.10,2013-02-17 00:20:00,
2013-02-16 19:35:00,32.4,31.0,29.75,WSW,256,0.0,-999.0,96,-99.99,,,0.35,weatherlink.com 1.10,2013-02-17 00:35:00,
2013-02-16 19:50:00,32.5,32.0,29.75,WSW,240,0.0,-999.0,96,-99.99,,,0.35,weatherlink.com 1.10,2013-02-17 00:50:00,
2013-02-16 20:05:00,32.5,32.0,29.75,NW,320,2.0,-999.0,96,-99.99,,,0.35,weatherlink.com 1.10,2013-02-17 01:05:00,
2013-02-16 20:20:00,32.4,31.0,29.76,NNW,343,0.0,-999.0,96,-99.99,,,0.35,weatherlink.com 1.10,2013-02-17 01:20:00,
2013-02-16 20:35:00,32.4,31.0,29.76,NNW,339,0.0,-999.0,96,-99.99,,,0.35,weatherlink.com 1.10,2013-02-17 01:35:00,
2013-02-16 20:50:00,32.4,31.0,29.76,NNW,328,0.0,-999.0,96,-99.99,,,0.35,weatherlink.com 1.10,2013-02-17 01:50:00,
2013-02-16 21:05:00,32.2,31.0,29.76,SW,236,0.0,-999.0,96,-99.99,,,0.35,weatherlink.com 1.10,2013-02-17 02:05:00,
2013-02-16 21:20:00,32.2,31.0,29.77,SW,236,0.0,-999.0,96,-99.99,,,0.35,weatherlink.com 1.10,2013-02-17 02:20:00,
2013-02-16 21:35:00,32.1,31.0,29.77,SW,236,0.0,-999.0,96,-99.99,,,0.35,weatherlink.com 1.10,2013-02-17 02:35:00,
2013-02-16 21:50:00,32.2,31.0,29.78,WNW,296,0.0,-999.0,96,-99.99,,,0.35,weatherlink.com 1.10,2013-02-17 02:50:00,
2013-02-16 22:05:00,32.2,31.0,29.78,WSW,240,0.0,-999.0,96,-99.99,,,0.35,weatherlink.com 1.10,2013-02-17 03:05:00,
2013-02-16 22:20:00,32.4,31.0,29.79,SSW,202,0.0,-999.0,95,-99.99,,,0.35,weatherlink.com 1.10,2013-02-17 03:20:00,
2013-02-16 22:35:00,32.4,31.0,29.79,SSW,209,1.0,-999.0,95,-99.99,,,0.35,weatherlink.com 1.10,2013-02-17 03:35:00,
2013-02-16 22:50:00,32.4,31.0,29.79,WNW,284,0.0,-999.0,95,-99.99,,,0.35,weatherlink.com 1.10,2013-02-17 03:50:00,
2013-02-16 23:05:00,32.1,31.0,29.79,NE,35,0.0,-999.0,95,-99.99,,,0.35,weatherlink.com 1.10,2013-02-17 04:05:00,
2013-02-16 23:20:00,31.5,30.0,29.79,WSW,247,0.0,-999.0,95,-99.99,,,0.35,weatherlink.com 1.10,2013-02-17 04:20:00,
2013-02-16 23:35:00,31.2,30.0,29.80,ENE,64,0.0,-999.0,95,-99.99,,,0.35,weatherlink.com 1.10,2013-02-17 04:35:00,
2013-02-16 23:50:00,30.7,30.0,29.81,South,191,0.0,-999.0,95,-99.99,,,0.35,weatherlink.com 1.10,2013-02-17 04:50:00,